User: anonymous   Login
Location: Cranbrook Institute of Science
(42.5830°N, 83.2450°W)
Time: 16:09:16
(UTC-04:00)
Language:

CZ-4B R/B - Orbit

View from above orbital plane
View from above orbital plane
View from above satellite
View from above satellite

Ground track
Ground track

The orbit data is extracted from the following two-line orbital elements,

1 29093U 06015B   17229.86989532 +.00003469 +00000-0 +82610-4 0  9999
2 29093 097.5001 342.2839 0065112 095.9221 264.9451 15.40119161626926
Epoch (UTC): 17 August 2017 20:52:38
Eccentricity: 0.0065112
inclination: 97.5001°
perigee height: 401 km
apogee height: 490 km
right ascension of ascending node: 342.2839°
argument of perigee: 95.9221°
revolutions per day: 15.40119161
mean anomaly at epoch: 264.9451°
orbit number at epoch: 62692

The dashed part of the orbit path shows where the satellite is in the earth's shadow,  

DLR